TimeCDT,TemperatureF,Dew PointF,Humidity,Sea Level PressureIn,VisibilityMPH,Wind Direction,Wind SpeedMPH,Gust SpeedMPH,PrecipitationIn,Events,Conditions,WindDirDegrees,DateUTC
12:52 AM,50.0,39.0,66,29.90,10.0,ESE,3.5,-,N/A,,Clear,120,2012-10-03 05:52:00
1:52 AM,50.0,37.9,63,29.90,10.0,Calm,Calm,-,N/A,,Clear,0,2012-10-03 06:52:00
2:52 AM,46.0,37.9,73,29.90,10.0,Calm,Calm,-,N/A,,Clear,0,2012-10-03 07:52:00
3:52 AM,48.0,39.0,71,29.89,10.0,Calm,Calm,-,N/A,,Clear,0,2012-10-03 08:52:00
4:52 AM,44.1,37.9,79,29.90,10.0,SE,3.5,-,N/A,,Clear,130,2012-10-03 09:52:00
5:52 AM,44.1,37.9,79,29.91,10.0,Calm,Calm,-,N/A,,Clear,0,2012-10-03 10:52:00
6:52 AM,45.0,37.9,76,29.91,10.0,Calm,Calm,-,N/A,,Clear,0,2012-10-03 11:52:00
7:52 AM,42.1,37.0,82,29.94,10.0,Calm,Calm,-,N/A,,Clear,0,2012-10-03 12:52:00
8:52 AM,53.1,44.1,71,29.93,10.0,SSE,4.6,-,N/A,,Clear,150,2012-10-03 13:52:00
9:52 AM,64.0,44.1,48,29.91,10.0,SSE,10.4,-,N/A,,Clear,160,2012-10-03 14:52:00
10:52 AM,73.0,39.9,30,29.89,10.0,South,16.1,-,N/A,,Clear,180,2012-10-03 15:52:00
11:52 AM,75.9,42.1,30,29.88,10.0,South,15.0,23.0,N/A,,Clear,180,2012-10-03 16:52:00
12:52 PM,78.1,42.1,28,29.86,10.0,South,18.4,-,N/A,,Clear,190,2012-10-03 17:52:00
1:52 PM,81.0,43.0,26,29.82,10.0,SSW,18.4,28.8,N/A,,Clear,200,2012-10-03 18:52:00
2:52 PM,82.0,45.0,27,29.81,10.0,South,20.7,27.6,N/A,,Clear,170,2012-10-03 19:52:00
3:52 PM,82.9,46.0,27,29.79,10.0,South,20.7,27.6,N/A,,Clear,170,2012-10-03 20:52:00
4:52 PM,82.0,46.9,29,29.79,10.0,South,21.9,29.9,N/A,,Clear,190,2012-10-03 21:52:00
5:52 PM,80.1,46.9,31,29.80,10.0,South,19.6,26.5,N/A,,Clear,180,2012-10-03 22:52:00
6:52 PM,77.0,46.9,34,29.82,10.0,South,13.8,-,N/A,,Clear,170,2012-10-03 23:52:00
7:52 PM,72.0,48.9,44,29.84,10.0,SSE,11.5,-,N/A,,Clear,160,2012-10-04 00:52:00
8:52 PM,70.0,48.9,47,29.85,10.0,SSE,9.2,-,N/A,,Clear,160,2012-10-04 01:52:00
9:52 PM,69.1,50.0,51,29.85,10.0,South,11.5,-,N/A,,Clear,170,2012-10-04 02:52:00
10:52 PM,69.1,50.0,51,29.86,10.0,South,15.0,-,N/A,,Clear,180,2012-10-04 03:52:00
11:52 PM,68.0,50.0,52,29.88,10.0,South,12.7,-,N/A,,Clear,180,2012-10-04 04:52:00